WA3AFS Weather Reports


time (UTC)temp
C
wind
direction
speed
KPH
gust
KPH
rain 1hr
cm
rain 24hr
cm
rain mn
cm
humidity
%
barometer
mb
20260506222806 10 86 6.4 16.1 0.00 1.30 1.27 88 1005.9
20260506222235 10 285 4.8 16.1 0.00 1.30 1.27 89 1005.8
20260506221728 10 143 1.6 12.9 0.00 1.30 1.27 89 1005.8
20260506221240 11 286 4.8 16.1 0.00 1.30 1.27 88 1005.7
20260506220732 11 137 3.2 16.1 0.00 1.30 1.27 89 1005.6
20260506220243 11 44 4.8 8.0 0.00 1.30 1.27 91 1005.7
20260506215737 11 139 3.2 6.4 0.00 1.30 1.27 91 1005.6
20260506215228 12 301 3.2 6.4 0.03 1.30 1.27 92 1005.5
20260506214801 12 319 1.6 11.3 0.08 1.30 1.27 92 1005.3
20260506214234 12 89 3.2 16.1 0.20 1.30 1.27 91 1005.0
20260506213806 12 280 3.2 16.1 0.28 1.30 1.27 91 1005.1
20260506213238 12 89 3.2 6.4 0.28 1.30 1.27 92 1005.1
20260506212728 12 84 3.2 9.7 0.28 1.30 1.27 92 1005.0
20260506212238 12 70 4.8 9.7 0.28 1.30 1.27 91 1004.8
20260506211731 13 60 3.2 12.9 0.28 1.30 1.27 91 1004.7
20260506211243 13 79 6.4 12.9 0.28 1.30 1.27 91 1004.5
20260506210735 13 65 4.8 14.5 0.28 1.30 1.27 90 1004.5
20260506210246 14 17 6.4 16.1 0.28 1.30 1.27 90 1004.4
20260506205738 15 289 6.4 16.1 0.28 1.30 1.27 94 1004.0
20260506205228 16 48 1.6 4.8 0.25 1.27 1.24 95 1004.0
20260506204801 16 27 3.2 4.8 0.20 1.22 1.19 95 1004.0
20260506204233 16 354 0.0 3.2 0.08 1.09 1.07 95 1003.9
20260506203727 16 212 0.0 0.0 0.00 1.02 0.99 95 1003.8
20260506203235 16 197 0.0 0.0 0.00 1.02 0.99 95 1003.7
20260506202746 16 174 0.0 0.0 0.00 1.02 0.99 95 1003.5
20260506202238 16 158 0.0 1.6 0.00 1.02 0.99 95 1003.6
20260506201729 16 147 0.0 1.6 0.00 1.02 0.99 95 1003.6
20260506201241 16 184 0.0 1.6 0.00 1.02 0.99 95 1003.7
20260506200751 16 151 0.0 0.0 0.00 1.02 0.99 95 1003.6
20260506200241 16 177 0.0 0.0 0.00 1.02 0.99 95 1003.7
20260506195754 16 183 0.0 0.0 0.00 1.02 0.99 95 1003.8
20260506195246 16 132 0.0 0.0 0.03 1.02 0.99 95 1003.8
20260506194737 16 147 0.0 0.0 0.03 1.02 0.99 95 1003.9
20260506194229 16 145 0.0 0.0 0.03 1.02 0.99 95 1004.0
20260506193742 16 115 0.0 0.0 0.05 1.02 0.99 95 1003.9
20260506193234 16 115 0.0 0.0 0.05 1.02 0.99 96 1004.0
20260506192747 16 116 0.0 0.0 0.05 1.02 0.99 96 1003.9
20260506192237 16 115 0.0 0.0 0.08 1.02 0.99 95 1004.0
20260506191729 16 115 0.0 0.0 0.08 1.02 0.99 95 1004.1
20260506191241 16 115 0.0 3.2 0.10 1.02 0.99 96 1004.0
20260506190733 16 115 0.0 3.2 0.10 1.02 0.99 96 1004.0
20260506190245 16 153 1.6 3.2 0.13 1.02 0.99 96 1004.0
20260506185758 16 161 0.0 3.2 0.15 1.02 0.99 96 1004.1
20260506185251 16 180 0.0 3.2 0.15 0.99 0.97 96 1004.1
20260506184758 16 139 1.6 3.2 0.15 0.99 0.97 96 1004.2
20260506184230 16 119 1.6 3.2 0.18 0.99 0.97 96 1004.2
20260506183743 15 182 1.6 3.2 0.15 0.97 0.94 96 1004.2
20260506183234 15 219 1.6 4.8 0.15 0.97 0.94 96 1004.3
20260506182805 15 228 1.6 4.8 0.20 0.97 0.94 96 1004.5
20260506182256 15 189 1.6 3.2 0.20 0.94 0.91 96 1004.4
20260506181727 15 152 1.6 4.8 0.18 0.91 0.89 96 1004.4
20260506181241 15 133 1.6 4.8 0.20 0.91 0.89 96 1004.4
20260506180753 15 216 0.0 1.6 0.20 0.91 0.89 96 1004.5
20260506180244 14 216 0.0 3.2 0.20 0.89 0.86 96 1004.6
20260506175737 14 185 1.6 3.2 0.18 0.86 0.84 96 1004.6
20260506175249 13 205 0.0 0.0 0.18 0.84 0.81 96 1004.5
20260506174758 13 91 0.0 0.0 0.18 0.84 0.81 95 1004.5
20260506174231 13 91 0.0 0.0 0.15 0.81 0.79 95 1004.6
20260506173744 13 91 0.0 0.0 0.18 0.81 0.79 95 1004.5
20260506173234 13 91 0.0 0.0 0.18 0.81 0.79 95 1004.6
20260506172746 13 54 0.0 0.0 0.15 0.76 0.74 95 1004.7
20260506172255 13 288 0.0 0.0 0.15 0.74 0.71 95 1004.8
20260506171746 13 28 0.0 0.0 0.18 0.74 0.71 95 1004.8
20260506171237 13 25 0.0 0.0 0.18 0.71 0.69 95 1004.8
20260506170729 13 54 0.0 0.0 0.18 0.71 0.69 95 1004.8
20260506170242 13 126 0.0 0.0 0.15 0.69 0.66 95 1004.7
20260506165736 13 126 0.0 0.0 0.18 0.69 0.66 95 1004.7
20260506165307 13 126 0.0 0.0 0.15 0.66 0.64 95 1004.6
20260506164737 13 126 0.0 0.0 0.18 0.66 0.64 95 1005.1
20260506164229 13 126 0.0 0.0 0.20 0.66 0.64 95 1005.0
20260506163801 13 126 0.0 0.0 0.18 0.64 0.61 95 1005.0
20260506163233 12 126 0.0 0.0 0.18 0.64 0.61 95 1005.1
20260506162807 12 126 0.0 0.0 0.18 0.61 0.58 95 1005.2
20260506162237 12 126 0.0 0.0 0.15 0.58 0.56 95 1005.5
20260506161728 12 126 0.0 0.0 0.15 0.56 0.53 95 1005.4
20260506161241 12 126 0.0 0.0 0.15 0.53 0.51 95 1005.5
20260506160734 12 126 0.0 0.0 0.15 0.53 0.51 94 1005.4
20260506160246 12 126 0.0 0.0 0.18 0.53 0.51 94 1005.4
20260506155737 12 126 0.0 0.0 0.15 0.51 0.48 94 1005.6
20260506155247 12 235 0.0 0.0 0.18 0.51 0.48 94 1005.7
20260506154740 12 235 0.0 0.0 0.15 0.48 0.46 94 1005.7
20260506154232 12 235 0.0 0.0 0.15 0.46 0.43 94 1005.8
20260506153801 12 288 0.0 0.0 0.15 0.46 0.43 94 1006.0
20260506153252 12 288 0.0 0.0 0.18 0.46 0.43 94 1006.1
20260506152742 12 288 0.0 0.0 0.18 0.43 0.41 94 1006.2
20260506152235 12 288 0.0 0.0 0.20 0.43 0.41 94 1006.2
20260506151744 12 288 0.0 0.0 0.18 0.41 0.38 94 1006.2
20260506151236 12 288 0.0 0.0 0.20 0.38 0.36 94 1006.3
20260506150729 12 288 0.0 0.0 0.23 0.38 0.36 94 1006.4
20260506150241 12 288 0.0 0.0 0.23 0.36 0.33 94 1006.3
20260506145734 12 288 0.0 0.0 0.23 0.36 0.33 94 1006.3
20260506145245 12 288 0.0 0.0 0.20 0.33 0.30 94 1006.5
20260506144737 12 288 0.0 0.0 0.23 0.33 0.30 94 1006.6
20260506144230 12 288 0.0 0.0 0.20 0.30 0.28 94 1006.6
20260506143743 12 288 0.0 0.0 0.20 0.30 0.28 93 1006.7
20260506143256 12 288 0.0 0.0 0.18 0.28 0.25 93 1006.7
20260506142728 12 288 0.0 0.0 0.15 0.25 0.23 94 1007.0
20260506142241 12 288 0.0 0.0 0.13 0.23 0.20 93 1007.0
20260506141733 12 288 0.0 0.0 0.10 0.20 0.18 93 1007.1
20260506141245 12 288 0.0 0.0 0.10 0.18 0.15 93 1007.0
20260506140738 12 288 0.0 0.0 0.08 0.15 0.13 93 1007.0
20260506140251 12 288 0.0 0.0 0.05 0.13 0.10 93 1006.9
20260506135803 12 288 0.0 0.0 0.08 0.13 0.10 93 1006.9
20260506135233 12 288 0.0 0.0 0.08 0.13 0.10 93 1007.0
20260506134802 12 288 0.0 0.0 0.05 0.10 0.08 93 1007.0
20260506134234 12 288 0.0 0.0 0.05 0.10 0.08 93 1006.8
20260506133745 12 288 0.0 0.0 0.05 0.10 0.08 93 1006.8
20260506133237 12 288 0.0 0.0 0.05 0.10 0.08 93 1006.8
20260506132728 12 288 0.0 0.0 0.08 0.10 0.08 92 1006.7
20260506132239 12 288 0.0 0.0 0.08 0.10 0.08 92 1006.6
20260506131732 12 288 0.0 0.0 0.08 0.10 0.08 92 1006.7
20260506131245 12 288 0.0 0.0 0.05 0.08 0.05 92 1006.8
20260506130737 12 219 0.0 0.0 0.05 0.08 0.05 92 1006.5
20260506130251 12 291 0.0 0.0 0.05 0.08 0.05 92 1006.6
20260506125743 12 289 0.0 0.0 0.03 0.05 0.03 91 1006.6
20260506125236 12 283 0.0 0.0 0.03 0.05 0.03 91 1006.8
20260506124727 12 249 0.0 0.0 0.03 0.05 0.03 91 1006.8
20260506124240 12 249 0.0 0.0 0.03 0.05 0.03 91 1006.8
20260506123753 12 249 0.0 0.0 0.03 0.05 0.03 91 1007.1
20260506123243 12 16 0.0 0.0 0.03 0.05 0.03 90 1006.8
20260506122736 12 126 0.0 0.0 0.00 0.03 0.00 90 1007.3
20260506122245 12 126 0.0 0.0 0.00 0.03 0.00 90 1007.3
20260506121739 12 89 0.0 0.0 0.00 0.03 0.00 90 1007.4
20260506121230 12 114 0.0 0.0 0.00 0.03 0.00 90 1007.4
20260506120742 12 262 0.0 1.6 0.00 0.03 0.00 90 1007.7
20260506120234 12 262 0.0 1.6 0.00 0.03 0.00 90 1007.5
20260506115727 12 262 0.0 1.6 0.00 0.03 0.00 90 1007.5
20260506115254 12 262 1.6 1.6 0.00 0.03 0.00 90 1007.6
20260506114747 12 260 1.6 3.2 0.00 0.03 0.00 90 1007.3
20260506114238 12 258 1.6 3.2 0.00 0.03 0.00 90 1007.7
20260506113728 12 124 0.0 1.6 0.00 0.03 0.00 90 1007.5
20260506113241 12 124 1.6 1.6 0.00 0.03 0.00 90 1007.1
20260506112732 12 243 0.0 1.6 0.00 0.03 0.00 90 1007.1
20260506112306 12 243 0.0 1.6 0.00 0.03 0.00 90 1007.0
20260506111734 12 243 0.0 1.6 0.00 0.03 0.00 90 1006.9
20260506111307 12 243 0.0 3.2 0.00 0.03 0.00 90 1007.1
20260506110738 11 187 3.2 6.4 0.00 0.03 0.00 90 1006.9
20260506110231 11 312 3.2 6.4 0.00 0.03 0.00 90 1006.7
20260506105743 11 303 0.0 0.0 0.00 0.03 0.00 89 1006.9
20260506105236 11 216 0.0 0.0 0.00 0.03 0.00 90 1006.9
20260506104731 11 216 0.0 0.0 0.00 0.03 0.00 89 1006.9
20260506104304 11 216 0.0 0.0 0.00 0.03 0.00 89 1006.9
20260506103735 11 229 0.0 0.0 0.00 0.03 0.00 89 1006.8
20260506103246 11 188 0.0 0.0 0.00 0.03 0.00 89 1006.9
20260506102738 11 188 0.0 0.0 0.00 0.03 0.00 89 1006.9
20260506102229 11 170 0.0 0.0 0.00 0.03 0.00 89 1006.6
20260506101742 11 170 0.0 0.0 0.00 0.03 0.00 89 1006.5
20260506101233 11 181 0.0 0.0 0.00 0.03 0.00 89 1006.5
20260506100801 11 152 0.0 0.0 0.00 0.03 0.00 88 1006.5
20260506100232 11 152 0.0 0.0 0.00 0.03 0.00 89 1006.6
20260506095744 11 227 0.0 0.0 0.00 0.03 0.00 88 1006.6
20260506095236 11 227 0.0 0.0 0.00 0.03 0.00 88 1006.4
20260506094727 11 227 0.0 0.0 0.00 0.03 0.00 88 1006.5
20260506094239 11 227 0.0 0.0 0.00 0.03 0.00 88 1006.5
20260506093730 11 227 0.0 0.0 0.00 0.03 0.00 88 1006.5
20260506093243 11 227 0.0 0.0 0.00 0.03 0.00 88 1006.4
20260506092734 11 227 0.0 0.0 0.00 0.03 0.00 88 1006.4
20260506092247 11 227 0.0 0.0 0.00 0.03 0.00 88 1006.4
20260506091739 11 227 0.0 0.0 0.00 0.03 0.00 88 1006.4
20260506091250 11 227 0.0 0.0 0.00 0.03 0.00 87 1006.4
20260506090741 11 227 0.0 0.0 0.00 0.03 0.00 87 1006.6
20260506090234 11 227 0.0 0.0 0.00 0.03 0.00 87 1006.5
20260506085804 11 227 0.0 0.0 0.00 0.03 0.00 87 1006.6
20260506085236 11 227 0.0 0.0 0.00 0.03 0.00 87 1006.7
20260506084745 11 227 0.0 0.0 0.00 0.03 0.00 87 1006.8
20260506084237 11 227 0.0 0.0 0.00 0.03 0.00 87 1006.8
20260506083730 12 227 0.0 0.0 0.00 0.03 0.00 87 1006.9
20260506083243 12 227 0.0 0.0 0.00 0.03 0.00 87 1006.9
20260506082737 12 227 0.0 0.0 0.00 0.03 0.00 87 1007.0
20260506082230 12 227 0.0 0.0 0.00 0.03 0.00 87 1007.1
20260506081743 12 227 0.0 0.0 0.00 0.03 0.00 87 1007.2
20260506081233 12 227 0.0 0.0 0.00 0.03 0.00 87 1007.1
20260506080744 12 227 0.0 0.0 0.00 0.03 0.00 86 1007.1
20260506080235 12 227 0.0 0.0 0.00 0.03 0.00 86 1007.2
20260506073245 12 227 0.0 0.0 0.00 0.03 0.00 86 1007.4
20260506072737 12 227 0.0 0.0 0.00 0.03 0.00 86 1007.7
20260506072248 12 227 0.0 0.0 0.00 0.03 0.00 85 1007.8
20260506071739 12 227 0.0 0.0 0.00 0.03 0.00 85 1007.8
20260506071233 12 227 0.0 0.0 0.00 0.03 0.00 85 1007.7
20260506070805 12 227 0.0 0.0 0.00 0.03 0.00 85 1007.8
20260506070256 12 227 0.0 0.0 0.00 0.03 0.00 84 1007.7
20260506062229 13 227 0.0 1.6 0.00 0.03 0.00 84 1008.2
20260506061739 13 227 1.6 1.6 0.00 0.03 0.00 83 1008.3
20260506061231 13 227 0.0 1.6 0.00 0.03 0.00 84 1008.4
20260506060738 13 227 0.0 3.2 0.00 0.03 0.00 85 1008.3
20260506060230 13 227 0.0 3.2 0.00 0.03 0.00 85 1008.3
20260506051230 13 243 1.6 3.2 0.00 0.03 0.00 81 1008.6
20260506050742 13 243 0.0 3.2 0.00 0.03 0.00 80 1008.5
20260506050235 13 243 1.6 3.2 0.00 0.03 0.00 80 1008.4
20260506044727 14 243 1.6 3.2 0.00 0.03 0.00 80 1008.5
20260506044239 14 197 0.0 1.6 0.00 0.03 0.00 78 1008.5
20260506043731 14 197 1.6 3.2 0.00 0.03 0.00 77 1008.4
20260506043243 15 197 1.6 4.8 0.00 0.03 0.00 78 1008.4
20260506042735 15 260 3.2 4.8 0.00 0.03 0.00 75 1008.2
20260506042246 15 359 1.6 8.0 0.00 0.03 0.00 75 1008.2
20260506041739 15 120 1.6 8.0 0.00 0.03 0.00 76 1008.0
20260506041230 15 280 3.2 6.4 0.00 0.03 0.03 75 1008.1
20260506040743 15 280 4.8 6.4 0.00 0.03 0.03 76 1008.2
20260506040234 15 268 3.2 9.7 0.00 0.03 0.03 77 1008.0
20260506035745 15 272 1.6 14.5 0.00 0.03 0.03 75 1008.0
20260506035236 15 297 3.2 14.5 0.00 0.03 0.03 77 1008.0
20260506034728 15 257 3.2 9.7 0.00 0.03 0.03 78 1007.7
20260506034237 15 170 3.2 11.3 0.00 0.03 0.03 76 1007.9
20260506033728 15 96 3.2 11.3 0.03 0.03 0.03 79 1008.2
20260506033240 15 224 3.2 6.4 0.03 0.03 0.03 81 1008.0
20260506032731 15 121 3.2 6.4 0.03 0.03 0.03 84 1007.9
20260506032305 15 96 3.2 6.4 0.03 0.03 0.03 87 1007.9
20260506031733 15 349 0.0 0.0 0.03 0.03 0.03 89 1007.9
20260506031243 15 319 0.0 0.0 0.03 0.03 0.03 89 1007.8
20260506030751 16 319 0.0 0.0 0.03 0.03 0.03 89 1007.8
20260506030302 16 344 0.0 0.0 0.03 0.03 0.03 88 1007.8
20260506025732 16 303 0.0 0.0 0.03 0.03 0.03 87 1007.7
20260506025245 16 303 0.0 0.0 0.03 0.03 0.03 86 1007.7
20260506024738 16 295 0.0 0.0 0.03 0.03 0.03 84 1007.9
20260506024230 16 128 0.0 3.2 0.03 0.03 0.03 83 1007.9
20260506023741 16 229 0.0 4.8 0.00 0.00 0.00 82 1008.3
20260506023231 16 284 3.2 6.4 0.00 0.00 0.00 82 1007.8
20260506022744 17 49 3.2 6.4 0.00 0.00 0.00 82 1007.6
20260506022236 17 336 0.0 0.0 0.00 0.00 0.00 81 1007.5
20260506021807 17 336 0.0 0.0 0.00 0.00 0.00 80 1007.3
20260506021237 17 336 0.0 0.0 0.00 0.00 0.00 79 1007.3
20260506020742 17 285 0.0 0.0 0.00 0.00 0.00 78 1007.3
20260506020254 17 285 0.0 0.0 0.00 0.00 0.00 78 1007.3
20260506015743 17 237 0.0 0.0 0.00 0.00 0.00 76 1007.1
20260506015235 17 281 0.0 0.0 0.00 0.00 0.00 75 1007.5
20260506014746 18 211 0.0 0.0 0.00 0.00 0.00 74 1007.3
20260506014239 18 211 0.0 0.0 0.00 0.00 0.00 72 1007.3
20260506013730 18 216 0.0 0.0 0.00 0.00 0.00 71 1007.2
20260506013244 18 146 0.0 0.0 0.00 0.00 0.00 69 1007.0
20260506012737 18 211 0.0 3.2 0.00 0.00 0.00 67 1007.0
20260506012308 19 211 0.0 3.2 0.00 0.00 0.00 67 1006.9
20260506011737 20 250 0.0 3.2 0.00 0.00 0.00 63 1006.9
20260506011247 20 218 0.0 3.2 0.00 0.00 0.00 62 1006.9
20260506010740 20 201 1.6 4.8 0.00 0.00 0.00 59 1006.8
20260506010234 20 111 1.6 4.8 0.00 0.00 0.00 57 1006.7
20260506005745 21 195 0.0 8.0 0.00 0.00 0.00 58 1006.8
20260506005236 21 29 3.2 8.0 0.00 0.00 0.00 55 1006.6
20260506004747 21 286 1.6 4.8 0.00 0.00 0.00 56 1006.7
20260506004239 21 206 1.6 9.7 0.00 0.00 0.00 56 1006.6
20260506003732 21 203 1.6 14.5 0.00 0.00 0.00 54 1006.6
20260506003259 21 169 3.2 14.5 0.00 0.00 0.00 53 1006.5
20260506002730 21 95 1.6 11.3 0.00 0.00 0.00 53 1006.2
20260506002242 21 87 1.6 11.3 0.00 0.00 0.00 54 1006.4
20260506001754 21 348 4.8 9.7 0.00 0.00 0.00 55 1006.5
20260506001245 21 306 1.6 6.4 0.00 0.00 0.00 56 1006.3
20260506000736 21 331 3.2 8.0 0.00 0.00 0.00 54 1006.0
20260506000230 21 309 3.2 4.8 0.00 0.00 0.00 55 1005.9
20260505235743 21 288 0.0 6.4 0.00 0.00 0.00 56 1005.9
20260505235234 21 312 1.6 6.4 0.00 0.00 0.00 54 1005.7
20260505234727 21 320 1.6 6.4 0.00 0.00 0.00 55 1005.7
20260505234241 21 305 3.2 4.8 0.00 0.00 0.00 55 1005.6
20260505233732 21 201 1.6 4.8 0.00 0.00 0.00 55 1005.7
20260505233244 21 251 1.6 4.8 0.00 0.00 0.00 56 1005.7
20260505232737 21 149 1.6 6.4 0.00 0.00 0.00 56 1005.7
20260505232229 21 191 3.2 6.4 0.00 0.00 0.00 55 1005.7
20260505231740 21 147 3.2 8.0 0.00 0.00 0.00 56 1005.6
20260505231231 21 136 3.2 8.0 0.00 0.00 0.00 56 1005.5
20260505230743 20 135 3.2 4.8 0.00 0.00 0.00 57 1005.4
20260505230235 20 156 1.6 3.2 0.00 0.00 0.00 57 1005.4
20260505225747 20 44 1.6 11.3 0.00 0.00 0.00 59 1005.5
20260505225238 20 286 3.2 14.5 0.00 0.00 0.00 60 1005.5
20260505224730 20 145 6.4 14.5 0.00 0.00 0.00 60 1005.6
20260505224241 20 285 3.2 17.7 0.00 0.00 0.00 63 1005.4
20260505223753 20 320 9.7 19.3 0.00 0.00 0.00 62 1005.6
20260505223244 20 264 3.2 14.5 0.00 0.00 0.00 64 1005.5